Hourly Data Report for October 10, 2015

All times are specified in Local Standard Time (LST). Add 1 hour to adjust for Daylight Saving Time where and when it is observed.

RESOLUTE BAY A
NUNAVUT

74°43'01.000" N
94°58'10.000" W
67.70 m
2403498
71924
YRB

Download Data

Hourly Data (October 2015)
Hourly Data Report for October 10, 2015
Temp Definition
°C
Dew Point Temp Definition
°C
Rel Hum Definition
%
Wind Dir Definition
10's deg

Wind Spd Definition
km/h
Visibility Definition
km
Stn Press Definition
kPa
Hmdx Definition


Wind Chill Definition


Weather Definition


TIME
00:00 Legend Double Dagger -6.5 -8.0 89 5 17 11.3 99.70   -13 Snow
01:00 Legend Double Dagger -5.8 -7.2 90 6 16 9.7 99.71   -12 Snow
02:00 Legend Double Dagger -5.3 -6.5 91 7 16 9.7 99.70   -11 Snow Showers
03:00 Legend Double Dagger -5.4 -6.6 91 7 17 9.7 99.69   -11 Snow
04:00 Legend Double Dagger -5.3 -6.7 90 8 19 8.1 99.70   -12 Fog
05:00 Legend Double Dagger -5.9 -7.3 90 8 20 9.7 99.71   -13 Snow
06:00 Legend Double Dagger -6.1 -7.5 90 9 15 11.3 99.72   -12 Snow
07:00 Legend Double Dagger -6.8 -8.3 89 11 12 11.3 99.73   -12 Snow
08:00 Legend Double Dagger -6.6 -7.7 92 24 35 1.6 99.77   -16 Snow
09:00 Legend Double Dagger -7.5 -9.0 89 23 37 6.4 99.87   -17 Snow
10:00 Legend Double Dagger -7.8 -9.8 86 21 27 16.1 99.98   -16 Snow
11:00 Legend Double Dagger -8.0 -10.1 85 20 28 16.1 100.07   -17 Snow
12:00 Legend Double Dagger -7.8 -9.9 85 20 24 24.1 100.11   -16 Cloudy
13:00 Legend Double Dagger -8.2 -10.6 83 19 20 24.1 100.14   -16 LegendNANA
14:00 Legend Double Dagger -7.8 -9.8 86 17 16 24.1 100.17   -14 LegendNANA
15:00 Legend Double Dagger -9.9 -12.7 80 14 12 24.1 100.19   -16 Mainly Clear
16:00 Legend Double Dagger -9.3 -12.3 79 11 22 24.1 100.19   -17 LegendNANA
17:00 Legend Double Dagger -9.3 -12.1 80 11 21 24.1 100.20   -17 LegendNANA
18:00 Legend Double Dagger -8.7 -11.7 79 11 21 24.1 100.21   -16 Cloudy
19:00 Legend Double Dagger -8.0 -10.1 85 12 23 24.1 100.23   -16 LegendNANA
20:00 Legend Double Dagger -9.1 -10.6 89 13 21 24.1 100.23   -17 LegendNANA
21:00 Legend Double Dagger -10.0 -11.9 86 11 22 24.1 100.24   -18 Mainly Clear
22:00 Legend Double Dagger -9.2 -12.2 79 9 20 24.1 100.24   -17 LegendNANA
23:00 Legend Double Dagger -9.6 -12.3 81 8 18 24.1 100.27   -17 LegendNANA

Notes on Data Quality.

Legend

  • E = Estimated
  • M = Missing
  • NA = Not Available
  • ‡ = Partner data that is not subject to review by the National Climate Archives
Date modified: